When you browse on this site, cookies collect data to enhance your experience and personalize the content and advertising you see.
Visit our Privacy Policy to learn more. By continuing to use the site, you agree to this use of cookies and data.
  • In Portugal
  • List of Countries
  • For 7 days
  • Water Temperature
  • Satellite Maps
  • Weather Map
  • Weather Widgets
  • user-avatar
    Login

    Hourly Weather Ghanzi

    Today, 17 December, Monday

    Time Temperature Precipitation Wind Pressure Humidity
    00:00 +12°C° 0 mm 5 mps 721 mmHg 42%
    01:00 +10°C° 0 mm 5 mps 721 mmHg 47%
    02:00 +10°C° 0 mm 5 mps 721 mmHg 51%
    03:00 +10°C° 0 mm 4 mps 722 mmHg 55%
    04:00 +10°C° 0 mm 4 mps 722 mmHg 59%
    05:00 +10°C° 0 mm 4 mps 722 mmHg 60%
    06:00 +10°C° 0 mm 4 mps 722 mmHg 62%
    07:00 +10°C° 0 mm 4 mps 722 mmHg 63%
    08:00 +12°C° 0 mm 5 mps 723 mmHg 54%
    09:00 +14°C° 0 mm 6 mps 723 mmHg 44%
    10:00 +16°C° 0 mm 7 mps 723 mmHg 35%
    11:00 +17°C° 0 mm 6 mps 722 mmHg 30%
    12:00 +19°C° 0 mm 6 mps 722 mmHg 26%
    13:00 +20°C° 0 mm 6 mps 721 mmHg 22%
    14:00 +20°C° 0 mm 6 mps 721 mmHg 22%
    15:00 +20°C° 0 mm 5 mps 721 mmHg 23%
    16:00 +20°C° 0 mm 5 mps 721 mmHg 23%
    17:00 +18°C° 0 mm 4 mps 721 mmHg 27%
    18:00 +15°C° 0 mm 4 mps 721 mmHg 31%
    19:00 +14°C° 0 mm 4 mps 721 mmHg 35%
    20:00 +13°C° 0 mm 4 mps 721 mmHg 38%
    21:00 +13°C° 0 mm 4 mps 721 mmHg 41%
    22:00 +12°C° 0 mm 3 mps 722 mmHg 45%
    23:00 +11°C° 0 mm 3 mps 722 mmHg 48%

    Tomorrow, 18 December, Tuesday

    Time Temperature Precipitation Wind Pressure Humidity
    00:00 +11°C° 0 mm 3 mps 722 mmHg 51%
    01:00 +10°C° 0 mm 3 mps 722 mmHg 54%
    02:00 +10°C° 0 mm 3 mps 721 mmHg 57%
    03:00 +10°C° 0 mm 3 mps 721 mmHg 59%
    04:00 +9°C° 0 mm 3 mps 721 mmHg 62%
    05:00 +9°C° 0 mm 3 mps 721 mmHg 62%
    06:00 +9°C° 0 mm 3 mps 721 mmHg 63%
    07:00 +9°C° 0 mm 3 mps 722 mmHg 63%
    08:00 +12°C° 0 mm 4 mps 722 mmHg 56%
    09:00 +14°C° 0 mm 4 mps 722 mmHg 48%
    10:00 +17°C° 0 mm 4 mps 722 mmHg 41%
    11:00 +18°C° 0 mm 4 mps 722 mmHg 36%
    12:00 +19°C° 0 mm 4 mps 721 mmHg 32%
    13:00 +20°C° 0 mm 4 mps 720 mmHg 27%
    14:00 +20°C° 0 mm 4 mps 720 mmHg 27%
    15:00 +20°C° 0 mm 4 mps 720 mmHg 26%
    16:00 +20°C° 0 mm 4 mps 719 mmHg 26%
    17:00 +19°C° 0 mm 4 mps 720 mmHg 30%
    18:00 +17°C° 0 mm 4 mps 720 mmHg 34%
    19:00 +15°C° 0 mm 4 mps 720 mmHg 37%
    20:00 +14°C° 0 mm 4 mps 721 mmHg 40%
    21:00 +14°C° 0 mm 4 mps 721 mmHg 43%
    22:00 +13°C° 0 mm 4 mps 721 mmHg 45%
    23:00 +12°C° 0 mm 4 mps 721 mmHg 48%

    Day after tomorrow, 19 December, Wednesday

    Time Temperature Precipitation Wind Pressure Humidity
    00:00 +12°C° 0 mm 4 mps 721 mmHg 50%
    01:00 +11°C° 0 mm 4 mps 721 mmHg 52%
    02:00 +11°C° 0 mm 4 mps 720 mmHg 55%
    03:00 +11°C° 0 mm 4 mps 720 mmHg 57%
    04:00 +10°C° 0 mm 4 mps 720 mmHg 59%
    05:00 +10°C° 0 mm 4 mps 720 mmHg 59%
    06:00 +10°C° 0 mm 4 mps 721 mmHg 59%
    07:00 +10°C° 0 mm 4 mps 721 mmHg 60%
    08:00 +12°C° 0 mm 5 mps 722 mmHg 53%
    09:00 +15°C° 0 mm 6 mps 722 mmHg 46%
    10:00 +17°C° 0 mm 6 mps 723 mmHg 39%
    11:00 +19°C° 0 mm 6 mps 722 mmHg 36%
    12:00 +20°C° 0 mm 6 mps 721 mmHg 33%
    13:00 +21°C° 0 mm 5 mps 721 mmHg 30%
    14:00 +21°C° 0 mm 5 mps 721 mmHg 31%
    15:00 +21°C° 0 mm 5 mps 720 mmHg 31%
    16:00 +21°C° 0 mm 5 mps 720 mmHg 31%
    17:00 +19°C° 0 mm 5 mps 720 mmHg 35%
    18:00 +17°C° 0 mm 5 mps 721 mmHg 39%
    19:00 +15°C° 0 mm 4 mps 721 mmHg 43%
    20:00 +15°C° 0 mm 5 mps 721 mmHg 45%
    21:00 +14°C° 0 mm 5 mps 721 mmHg 47%
    22:00 +13°C° 0 mm 5 mps 721 mmHg 49%
    23:00 +13°C° 0 mm 5 mps 721 mmHg 50%

    20 December, Thursday

    Time Temperature Precipitation Wind Pressure Humidity
    00:00 +12°C° 0 mm 5 mps 721 mmHg 50%
    01:00 +10°C° 0 mm 5 mps 721 mmHg 50%
    02:00 +10°C° 0 mm 5 mps 721 mmHg 51%
    03:00 +9°C° 0 mm 5 mps 721 mmHg 51%
    04:00 +9°C° 0 mm 5 mps 721 mmHg 51%
    05:00 +9°C° 0 mm 5 mps 721 mmHg 54%
    06:00 +10°C° 0 mm 4 mps 721 mmHg 57%
    07:00 +8°C° 0 mm 4 mps 722 mmHg 60%
    08:00 +12°C° 0 mm 5 mps 722 mmHg 53%
    09:00 +14°C° 0 mm 5 mps 722 mmHg 45%
    10:00 +16°C° 0 mm 5 mps 723 mmHg 38%
    11:00 +17°C° 0 mm 5 mps 722 mmHg 35%
    12:00 +19°C° 0 mm 4 mps 721 mmHg 32%
    13:00 +20°C° 0 mm 4 mps 721 mmHg 28%
    14:00 +20°C° 0 mm 4 mps 720 mmHg 28%
    15:00 +20°C° 0 mm 4 mps 720 mmHg 27%
    16:00 +20°C° 0 mm 5 mps 720 mmHg 27%
    17:00 +18°C° 0 mm 4 mps 720 mmHg 31%
    18:00 +17°C° 0 mm 4 mps 720 mmHg 35%
    19:00 +14°C° 0 mm 4 mps 721 mmHg 38%
    20:00 +14°C° 0 mm 4 mps 721 mmHg 40%
    21:00 +13°C° 0 mm 4 mps 721 mmHg 42%
    22:00 +12°C° 0 mm 4 mps 721 mmHg 43%
    23:00 +12°C° 0 mm 4 mps 721 mmHg 44%

    21 December, Friday

    Time Temperature Precipitation Wind Pressure Humidity
    00:00 +11°C° 0 mm 4 mps 721 mmHg 45%
    01:00 +11°C° 0 mm 4 mps 720 mmHg 46%
    02:00 +10°C° 0 mm 4 mps 720 mmHg 48%
    03:00 +10°C° 0 mm 4 mps 720 mmHg 49%
    04:00 +8°C° 0 mm 4 mps 720 mmHg 50%
    05:00 +8°C° 0 mm 4 mps 721 mmHg 50%
    06:00 +9°C° 0 mm 3 mps 721 mmHg 50%
    07:00 +9°C° 0 mm 3 mps 721 mmHg 50%
    08:00 +11°C° 0 mm 3 mps 722 mmHg 43%
    09:00 +13°C° 0 mm 3 mps 722 mmHg 37%
    10:00 +16°C° 0 mm 3 mps 722 mmHg 31%
    11:00 +17°C° 0 mm 3 mps 721 mmHg 28%
    12:00 +19°C° 0 mm 3 mps 721 mmHg 24%
    13:00 +20°C° 0 mm 3 mps 720 mmHg 21%
    14:00 +20°C° 0 mm 3 mps 720 mmHg 21%
    15:00 +20°C° 0 mm 3 mps 720 mmHg 20%
    16:00 +20°C° 0 mm 4 mps 719 mmHg 20%
    17:00 +19°C° 0 mm 4 mps 720 mmHg 22%
    18:00 +17°C° 0 mm 4 mps 720 mmHg 24%
    19:00 +15°C° 0 mm 4 mps 720 mmHg 27%
    20:00 +14°C° 0 mm 4 mps 720 mmHg 29%
    21:00 +14°C° 0 mm 4 mps 720 mmHg 31%
    22:00 +13°C° 0 mm 4 mps 720 mmHg 33%
    23:00 +12°C° 0 mm 4 mps 720 mmHg 37%

    22 December, Saturday

    Time Temperature Precipitation Wind Pressure Humidity
    00:00 +12°C° 0 mm 4 mps 720 mmHg 40%
    01:00 +11°C° 0 mm 4 mps 720 mmHg 44%
    02:00 +11°C° 0 mm 4 mps 720 mmHg 46%
    03:00 +11°C° 0 mm 4 mps 720 mmHg 49%
    04:00 +10°C° 0 mm 4 mps 719 mmHg 52%
    05:00 +10°C° 0 mm 4 mps 720 mmHg 52%
    06:00 +10°C° 0 mm 4 mps 720 mmHg 53%
    07:00 +10°C° 0 mm 4 mps 721 mmHg 53%
    08:00 +12°C° 0 mm 4 mps 721 mmHg 47%
    09:00 +14°C° 0 mm 5 mps 721 mmHg 41%
    10:00 +16°C° 0 mm 5 mps 721 mmHg 35%
    11:00 +17°C° 0 mm 5 mps 721 mmHg 32%
    12:00 +19°C° 0 mm 5 mps 720 mmHg 29%
    13:00 +20°C° 0 mm 5 mps 720 mmHg 26%
    14:00 +20°C° 0 mm 5 mps 720 mmHg 26%
    15:00 +20°C° 0 mm 5 mps 719 mmHg 27%
    16:00 +19°C° 0 mm 5 mps 719 mmHg 27%
    17:00 +17°C° 0 mm 5 mps 720 mmHg 30%
    18:00 +16°C° 0 mm 5 mps 720 mmHg 33%
    19:00 +15°C° 0 mm 5 mps 720 mmHg 37%
    20:00 +14°C° 0 mm 5 mps 720 mmHg 40%
    21:00 +13°C° 0 mm 6 mps 721 mmHg 44%
    22:00 +13°C° 0 mm 6 mps 721 mmHg 48%
    23:00 +11°C° 0 mm 6 mps 721 mmHg 50%
    Show more